(204878) = 2002 XM67 = 2007 TE14

Discovered at Hibiscus on 2007-10-03 by Hibiscus.

Orbit

Orbit type: Main Belt

Note: WebGL enabled browser required.

epoch2023-09-13.0
epoch JD2460200.5
perihelion date2018-08-15.84237
perihelion JD2458346.34237
argument of perihelion (°)275.99854
ascending node (°)114.09898
inclination (°)15.62575
eccentricity0.1129503
perihelion distance (AU)2.7226539
Tisserand w.r.t. Jupiter3.2
ΔV w.r.t. Earth (km/sec)11.4
semimajor axis (AU)3.0693365
mean anomaly (°)339.84724
mean daily motion (°/day)0.18328930
aphelion distance (AU)3.416
period (years)5.38
P-vector [x]0.83162069
P-vector [y]0.55287888
P-vector [z]-0.05226825
Q-vector [x]-0.49794770
Q-vector [y]0.78403097
Q-vector [z]0.37059887
absolute magnitude15.59
phase slope0.15
uncertainty0
referenceMPEC 2023-Y63
observations used446
oppositions14
arc length (days)7678
first opposition used2002
last opposition used2023
residual rms (arc-secs)0.73
perturbers coarse indicatorM-v
perturbers precise indicator003Ek
first observation date used2002-12-10.0
last observation date used2023-12-18.0
computer nameMPCLINUX
JD of orbit computation2456700.479937
perihelion JD uncertainty (days)4.4393E-04
argument of perihelion uncertainty (°)9.9963E-05
ascending node uncertainty (°)2.1254E-05
inclination uncertainty (°)1.0279E-05
eccentricity uncertainty 1.4647E-07
perihelion distance uncertainty (AU)4.4302E-07
Minimum Orbit Intersection Distances (in AU)
for orbit epoch: 2460200.5, reference: E2023-Y63
Mercury2.39508
Venus2.02362
Earth1.78386
Mars1.32192
Jupiter2.06595
Saturn6.07503
Uranus15.217
Neptune27.1862

Observations

457 total observations over interval: 2002 12 10.20891 – 2023 12 18.135635
These data are available for download (format description).

Date (UT) J2000 RA J2000 Dec Magn Location Ref
2002 12 10.20891 04 26 32.61 +04 38 37.1 18.9   644 – Palomar Mountain/NEAT MPS 68446
2002 12 10.27146 04 26 29.26 +04 38 50.4 19.5   644 – Palomar Mountain/NEAT MPS 68446
2002 12 10.33363 04 26 25.99 +04 39 03.3 19.2   644 – Palomar Mountain/NEAT MPS 68446
2002 12 13.34212 04 23 55.11 +04 50 05.6 19.7   644 – Palomar Mountain/NEAT MPS 68446
2002 12 13.37786 04 23 53.30 +04 50 14.2 19.6   644 – Palomar Mountain/NEAT MPS 68446
2002 12 13.40933 04 23 51.70 +04 50 21.7 20.0   644 – Palomar Mountain/NEAT MPS 68446
2004 02 11.45861 10 40 08.17 +22 33 20.8 19.4   644 – Palomar Mountain/NEAT MPS 218868
2004 02 11.47093 10 40 07.64 +22 33 26.7 19.7   644 – Palomar Mountain/NEAT MPS 218868
2004 02 11.48317 10 40 07.13 +22 33 33.0 19.6   644 – Palomar Mountain/NEAT MPS 218868
2004 02 16.35443 10 36 35.33 +23 13 50.2 20.4 V 691 – Steward Observatory, Kitt Peak-Spacewatch MPS 218868
2004 02 16.38126 10 36 34.05 +23 14 03.1 20.7 V 691 – Steward Observatory, Kitt Peak-Spacewatch MPS 218868
2004 02 16.40895 10 36 32.80 +23 14 16.3 20.9 V 691 – Steward Observatory, Kitt Peak-Spacewatch MPS 218868
2007 09 14.40447 02 25 42.96 -09 05 35.1 20.2 V 703 – Catalina Sky Survey MPS 218868
2007 09 14.41352 02 25 42.88 -09 05 38.3 20.4 V 703 – Catalina Sky Survey MPS 218868
2007 09 14.42257 02 25 42.63 -09 05 42.8 20.2 V 703 – Catalina Sky Survey MPS 218868
2007 09 14.43164 02 25 42.60 -09 05 47.3 20.0 V 703 – Catalina Sky Survey MPS 218868
2007 10 03.39652 02 18 31.77 -11 23 38.4 19.8 V F84 – Hibiscus Observatory, Punaauia MPS 218868
2007 10 03.41673 02 18 31.08 -11 23 45.9   F84 – Hibiscus Observatory, Punaauia MPS 218868
2007 10 03.43647 02 18 30.34 -11 23 54.2   F84 – Hibiscus Observatory, Punaauia MPS 218868
2007 10 05.53298 02 17 14.76 -11 37 47.9 20.0 V F84 – Hibiscus Observatory, Punaauia MPS 218868
2007 10 05.54612 02 17 14.20 -11 37 52.6 19.8 V F84 – Hibiscus Observatory, Punaauia MPS 218868
2007 10 05.55953 02 17 13.70 -11 37 57.8 19.8 V F84 – Hibiscus Observatory, Punaauia MPS 218868
2007 10 07.51665 02 15 59.24 -11 50 26.9 19.5 V F85 – Tiki Observatory, Punaauia MPS 218868
2007 10 07.55311 02 15 57.73 -11 50 40.1 19.4 V F85 – Tiki Observatory, Punaauia MPS 218868
2007 10 11.45075 02 13 18.97 -12 13 52.9 19.6 V F85 – Tiki Observatory, Punaauia MPS 218868
2007 10 11.47718 02 13 17.80 -12 14 02.0 19.8 V F85 – Tiki Observatory, Punaauia MPS 218868
2007 10 11.50281 02 13 16.65 -12 14 10.7 19.8 V F85 – Tiki Observatory, Punaauia MPS 218868
2007 10 17.28268 02 09 00.90 -12 43 45.6 19.1 V 703 – Catalina Sky Survey MPS 220711
2007 10 17.28919 02 09 00.54 -12 43 48.7 19.2 V 703 – Catalina Sky Survey MPS 220711
2007 10 17.29573 02 09 00.21 -12 43 50.7 19.4 V 703 – Catalina Sky Survey MPS 220711
2007 10 17.30221 02 08 59.96 -12 43 51.9 19.2 V 703 – Catalina Sky Survey MPS 220711
2007 10 20.52239 02 06 30.17 -12 57 20.7 19.5 V F85 – Tiki Observatory, Punaauia MPS 222596
2007 10 20.53933 02 06 29.35 -12 57 24.5 19.4 V F85 – Tiki Observatory, Punaauia MPS 222596
2007 10 20.55645 02 06 28.53 -12 57 28.3 19.4 V F85 – Tiki Observatory, Punaauia MPS 222596
2007 10 21.48922 02 05 44.74 -13 00 58.0 20.2 V F85 – Tiki Observatory, Punaauia MPS 222596
2007 10 21.51499 02 05 43.48 -13 01 03.4 19.5 V F85 – Tiki Observatory, Punaauia MPS 222596
2007 10 21.54040 02 05 42.25 -13 01 08.8 19.6 V F85 – Tiki Observatory, Punaauia MPS 222596
2007 11 02.32964 01 56 28.57 -13 27 02.6 19.3 V 703 – Catalina Sky Survey MPS 224986
2007 11 02.33472 01 56 28.42 -13 27 03.7 19.4 V 703 – Catalina Sky Survey MPS 224986
2007 11 02.33978 01 56 28.14 -13 27 04.2 18.5 V 703 – Catalina Sky Survey MPS 224986
2007 11 02.34484 01 56 27.88 -13 27 04.3 19.6 V 703 – Catalina Sky Survey MPS 224986
2007 11 02.34536 01 56 28.11 -13 27 00.0 19.8 V F84 – Hibiscus Observatory, Punaauia MPS 269099
2007 11 02.39936 01 56 25.62 -13 27 03.2 20.3 V F84 – Hibiscus Observatory, Punaauia MPS 269099
2007 11 02.45369 01 56 23.02 -13 27 04.5 20.1 V F84 – Hibiscus Observatory, Punaauia MPS 269099
2007 11 03.48471 01 55 36.35 -13 27 37.0 19.6 V F84 – Hibiscus Observatory, Punaauia MPS 224986
2007 11 03.52072 01 55 34.75 -13 27 38.4 19.5 V F84 – Hibiscus Observatory, Punaauia MPS 224986
2007 11 03.55804 01 55 33.00 -13 27 38.1 19.8 V F84 – Hibiscus Observatory, Punaauia MPS 224986
2007 11 11.20647 01 50 09.34 -13 22 53.4 20.4 V 703 – Catalina Sky Survey MPS 226936
2007 11 11.21349 01 50 09.16 -13 22 51.8 20.2 V 703 – Catalina Sky Survey MPS 226936
2007 11 11.22051 01 50 08.73 -13 22 51.8 20.2 V 703 – Catalina Sky Survey MPS 226936
2007 11 11.22752 01 50 08.48 -13 22 50.8 20.4 V 703 – Catalina Sky Survey MPS 226936
2008 10 31.49128 08 34 18.44 +16 32 34.9 21.2 V G96 – Mt. Lemmon Survey MPS 261645
2008 10 31.49678 08 34 18.69 +16 32 34.8 20.9 V G96 – Mt. Lemmon Survey MPS 261645
2008 10 31.50229 08 34 18.91 +16 32 35.1 20.7 V G96 – Mt. Lemmon Survey MPS 261645
2008 10 31.50777 08 34 19.16 +16 32 35.1 21.0 V G96 – Mt. Lemmon Survey MPS 261645
2008 11 21.42426 08 45 18.46 +16 56 38.4 20.7 V G96 – Mt. Lemmon Survey MPS 265295
2008 11 21.42987 08 45 18.57 +16 56 39.3 21.0 V G96 – Mt. Lemmon Survey MPS 265295
2008 11 21.43548 08 45 18.68 +16 56 40.3 21.1 V G96 – Mt. Lemmon Survey MPS 265295
2008 11 21.44104 08 45 18.79 +16 56 40.7 20.8 V G96 – Mt. Lemmon Survey MPS 265295
2008 12 07.36813 08 47 18.09 +17 49 44.1 20.5 V G96 – Mt. Lemmon Survey MPS 268818
2008 12 07.37262 08 47 18.02 +17 49 45.2 20.4 V G96 – Mt. Lemmon Survey MPS 268818
2008 12 07.37704 08 47 18.02 +17 49 46.9 20.2 V G96 – Mt. Lemmon Survey MPS 268818
2008 12 07.38142 08 47 17.95 +17 49 48.2 19.9 V G96 – Mt. Lemmon Survey MPS 268818
2008 12 21.45377 08 43 57.36 +19 04 17.4 20.2 V G96 – Mt. Lemmon Survey MPS 269295
2008 12 21.45919 08 43 57.21 +19 04 19.2 20.1 V G96 – Mt. Lemmon Survey MPS 269295
2008 12 21.46464 08 43 57.07 +19 04 21.3 20.1 V G96 – Mt. Lemmon Survey MPS 269295
2008 12 21.46844 08 43 56.97 +19 04 23.1 20.1 V 691 – Steward Observatory, Kitt Peak-Spacewatch MPS 269295
2008 12 21.47010 08 43 56.92 +19 04 23.4 20.1 V G96 – Mt. Lemmon Survey MPS 269295
2008 12 21.48657 08 43 56.51 +19 04 29.9 20.1 V 691 – Steward Observatory, Kitt Peak-Spacewatch MPS 269295
2008 12 21.50469 08 43 56.04 +19 04 36.4 20.1 V 691 – Steward Observatory, Kitt Peak-Spacewatch MPS 269295
2008 12 29.33035 08 40 03.36 +19 55 54.3 20.6 V G96 – Mt. Lemmon Survey MPS 270198
2008 12 29.34008 08 40 02.96 +19 55 58.4 20.4 V G96 – Mt. Lemmon Survey MPS 270198
2008 12 29.34773 08 40 02.71 +19 56 01.6 20.3 V G96 – Mt. Lemmon Survey MPS 270198
2008 12 29.35535 08 40 02.42 +19 56 05.1 20.4 V G96 – Mt. Lemmon Survey MPS 270198
2008 12 29.40714 08 40 00.53 +19 56 26.9 19.9 V 691 – Steward Observatory, Kitt Peak-Spacewatch MPS 270198
2008 12 29.42525 08 39 59.85 +19 56 34.3 20.0 V 691 – Steward Observatory, Kitt Peak-Spacewatch MPS 270198
2008 12 29.44391 08 39 59.18 +19 56 42.0 20.0 V 691 – Steward Observatory, Kitt Peak-Spacewatch MPS 270198
2008 12 31.41534 08 38 47.95 +20 10 30.2 19.9 V 691 – Steward Observatory, Kitt Peak-Spacewatch MPS 270198
2008 12 31.43348 08 38 47.25 +20 10 38.1 20.0 V 691 – Steward Observatory, Kitt Peak-Spacewatch MPS 270198
2008 12 31.44925 08 38 46.64 +20 10 44.7 20.0 V 691 – Steward Observatory, Kitt Peak-Spacewatch MPS 270198
2008 12 31.79248 08 38 33.76 +20 13 11.0 20.2 R D29 – Purple Mountain Observatory, XuYi Station MPS 270198
2008 12 31.81024 08 38 33.14 +20 13 17.9 20.4 R D29 – Purple Mountain Observatory, XuYi Station MPS 270198
2008 12 31.82669 08 38 32.49 +20 13 25.1 20.2 R D29 – Purple Mountain Observatory, XuYi Station MPS 270198
2008 12 31.84347 08 38 31.87 +20 13 32.5 19.4 R D29 – Purple Mountain Observatory, XuYi Station MPS 270198
2009 01 18.17190 08 25 22.39 +22 22 15.4   691 – Steward Observatory, Kitt Peak-Spacewatch MPS 276309
2009 01 18.19030 08 25 21.46 +22 22 23.9   691 – Steward Observatory, Kitt Peak-Spacewatch MPS 276309
2009 01 18.20846 08 25 20.55 +22 22 31.9   691 – Steward Observatory, Kitt Peak-Spacewatch MPS 276309
2009 01 25.33743 08 19 11.64 +23 14 43.0 19.5 V 703 – Catalina Sky Survey MPS 276309
2009 01 25.34532 08 19 11.20 +23 14 45.9 19.6 V 703 – Catalina Sky Survey MPS 276309
